This demonstration page uses our WeatherBlox Daily Observations layout. Learn more.

Hourly Observations for May 2, 2015

Temp ( °F °C ) Dew Point ( °F °C ) Humidity (%) Winds ( mph kmh ) Pressure ( in mb ) Visibility ( mi km ) Precip ( " mm )
12:15 am 00:15 Mostly Cloudy 61 16 52 11 72 72 SE 7 11 29.91 1013 10 16.09344 0 0
12:35 am 00:35 Partly Cloudy 61 16 52 11 72 72 SE 7 11 29.91 1013 10 16.09344 0 0
12:55 am 00:55 Partly Cloudy 61 16 52 11 72 72 SSE 7 11 29.91 1013 10 16.09344 0 0
1:15 am 01:15 Partly Cloudy 63 17 50 10 64 64 SSE 7 11 29.91 1013 10 16.09344 0 0
1:35 am 01:35 Partly Cloudy 64 18 50 10 60 60 S 12 19 29.91 1013 10 16.09344 0 0
1:55 am 01:55 Partly Cloudy 63 17 50 10 64 64 S 8 13 29.88 1012 10 16.09344 0 0
2:15 am 02:15 Clear 63 17 48 9 59 59 S 10 17 29.88 1012 10 16.09344 0 0
2:35 am 02:35 Clear 63 17 48 9 59 59 S 13 20 29.88 1012 10 16.09344 0 0
2:55 am 02:55 Clear 63 17 48 9 59 59 S 14 22 29.88 1012 10 16.09344 0 0
3:15 am 03:15 Clear 61 16 48 9 63 63 S 9 15 29.88 1012 10 16.09344 0 0
3:35 am 03:35 Partly Cloudy 61 16 48 9 63 63 S 8 13 29.85 1011 10 16.09344 0 0
3:55 am 03:55 Partly Cloudy 61 16 48 9 63 63 S 9 15 29.85 1011 10 16.09344 0 0
4:15 am 04:15 Partly Cloudy 61 16 48 9 63 63 SSW 8 13 29.85 1011 10 16.09344 0 0
4:35 am 04:35 Mostly Cloudy 61 16 48 9 63 63 SSW 10 17 29.85 1011 10 16.09344 0 0
4:55 am 04:55 Partly Cloudy 59 15 48 9 68 68 SSW 8 13 29.88 1012 10 16.09344 0 0
5:15 am 05:15 Clear 59 15 48 9 68 68 SSW 9 15 29.88 1012 10 16.09344 0 0
5:35 am 05:35 Clear 59 15 48 9 68 68 SW 9 15 29.88 1012 10 16.09344 0 0
5:55 am 05:55 Clear 57 14 48 9 72 72 SW 7 11 29.88 1012 10 16.09344 0 0
6:15 am 06:15 Clear 57 14 48 9 72 72 SSW 7 11 29.88 1012 10 16.09344 0 0
6:35 am 06:35 Sunny 55 13 48 9 77 77 SSW 9 15 29.88 1012 10 16.09344 0 0
6:55 am 06:55 Sunny 57 14 48 9 72 72 SSW 8 13 29.88 1012 10 16.09344 0 0
7:15 am 07:15 Sunny 55 13 48 9 77 77 SSW 8 13 29.88 1012 10 16.09344 0 0
7:35 am 07:35 Sunny 57 14 50 10 77 77 SSW 8 13 29.88 1012 10 16.09344 0 0
7:55 am 07:55 Sunny 61 16 50 10 68 68 SSW 8 13 29.85 1011 10 16.09344 0 0
8:15 am 08:15 Sunny 63 17 50 10 64 64 SW 6 9 29.85 1011 10 16.09344 0 0
8:35 am 08:35 Sunny 64 18 50 10 60 60 SW 7 11 29.85 1011 10 16.09344 0 0
8:55 am 08:55 Sunny 66 19 50 10 56 56 SW 9 15 29.83 1010 10 16.09344 0 0
9:15 am 09:15 Sunny 68 20 50 10 53 53 SW 10 17 29.83 1010 10 16.09344 0 0
9:35 am 09:35 Sunny 68 20 52 11 56 56 SW 10 17 29.83 1010 10 16.09344 0 0
9:55 am 09:55 Sunny 70 21 50 10 50 50 SW 12 19 29.83 1010 10 16.09344 0 0
10:15 am 10:15 Sunny 72 22 50 10 47 47 SW 9 15 29.83 1010 10 16.09344 0 0
10:35 am 10:35 Sunny 73 23 50 10 44 44 SW 10 17 29.77 1008 10 16.09344 0 0
10:55 am 10:55 Sunny 73 23 50 10 44 44 SW 10 17 29.77 1008 10 16.09344 0 0
11:15 am 11:15 Sunny 75 24 50 10 41 41 SW 8 13 29.77 1008 10 16.09344 0 0
11:35 am 11:35 Sunny 75 24 48 9 39 39 SW 9 15 29.77 1008 10 16.09344 0 0
11:55 am 11:55 Sunny 77 25 50 10 39 39 SSW 10 17 29.77 1008 10 16.09344 0 0
12:15 pm 12:15 Sunny 79 26 48 9 34 34 S 9 15 29.74 1007 10 16.09344 0 0
12:35 pm 12:35 Sunny 79 26 48 9 34 34 SSW 12 19 29.71 1006 10 16.09344 0 0
12:55 pm 12:55 Sunny 79 26 48 9 34 34 S 9 15 29.71 1006 10 16.09344 0 0
1:15 pm 13:15 Sunny 81 27 48 9 32 32 SSW 12 19 29.68 1005 10 16.09344 0 0
1:35 pm 13:35 Sunny 81 27 46 8 30 30 S 12 19 29.68 1005 10 16.09344 0 0
1:55 pm 13:55 Sunny 81 27 46 8 30 30 S 8 13 29.68 1005 10 16.09344 0 0
2:15 pm 14:15 Sunny 82 28 46 8 28 28 SSW 10 17 29.68 1005 10 16.09344 0 0
2:35 pm 14:35 Sunny 82 28 46 8 28 28 SSW 15 24 29.68 1005 10 16.09344 0 0
2:55 pm 14:55 Sunny 82 28 46 8 28 28 SSW 12 19 29.65 1004 10 16.09344 0 0
3:15 pm 15:15 Sunny 84 29 46 8 27 27 SW 10 17 29.62 1003 10 16.09344 0 0
3:35 pm 15:35 Sunny 82 28 45 7 26 26 S 16 26 29.65 1004 10 16.09344 0 0
3:55 pm 15:55 Sunny 84 29 46 8 27 27 SSW 14 22 29.62 1003 10 16.09344 0 0
4:15 pm 16:15 Sunny 84 29 46 8 27 27 SSW 16 26 29.62 1003 10 16.09344 0 0
4:35 pm 16:35 Sunny 84 29 45 7 25 25 S 13 20 29.62 1003 10 16.09344 0 0
4:55 pm 16:55 Sunny 84 29 45 7 25 25 S 13 20 29.62 1003 10 16.09344 0 0
5:15 pm 17:15 Sunny 84 29 43 6 23 23 SSW 15 24 29.59 1002 10 16.09344 0 0
5:35 pm 17:35 Sunny 84 29 43 6 23 23 S 16 26 29.59 1002 10 16.09344 0 0
5:55 pm 17:55 Sunny 84 29 43 6 23 23 SSW 15 24 29.59 1002 10 16.09344 0 0
6:15 pm 18:15 Sunny 82 28 41 5 23 23 S 14 22 29.62 1003 10 16.09344 0 0
6:35 pm 18:35 Sunny 82 28 41 5 23 23 SSW 16 26 29.62 1003 10 16.09344 0 0
6:55 pm 18:55 Sunny 82 28 41 5 23 23 SSW 16 26 29.62 1003 10 16.09344 0 0
7:15 pm 19:15 Sunny 82 28 41 5 23 23 SSW 18 30 29.62 1003 10 16.09344 0 0
7:35 pm 19:35 Sunny 81 27 43 6 26 26 S 15 24 29.59 1002 10 16.09344 0 0
7:55 pm 19:55 Sunny 79 26 43 6 28 28 S 14 22 29.59 1002 10 16.09344 0 0
8:15 pm 20:15 Sunny 79 26 45 7 30 30 S 17 28 29.59 1002 10 16.09344 0 0
8:35 pm 20:35 Clear 77 25 45 7 32 32 SSW 14 22 29.59 1002 10 16.09344 0 0
8:55 pm 20:55 Clear 77 25 45 7 32 32 S 9 15 29.59 1002 10 16.09344 0 0
9:15 pm 21:15 Clear 75 24 45 7 34 34 SSW 9 15 29.65 1004 10 16.09344 0 0
9:35 pm 21:35 Clear 72 22 46 8 41 41 SW 6 9 29.65 1004 10 16.09344 0 0
9:55 pm 21:55 Clear 68 20 46 8 46 46 SW 5 7 29.68 1005 10 16.09344 0 0
10:15 pm 22:15 Clear 70 21 46 8 43 43 SSW 5 7 29.65 1004 10 16.09344 0 0
10:35 pm 22:35 Clear 68 20 46 8 46 46 SSW 8 13 29.68 1005 10 16.09344 0 0
10:55 pm 22:55 Clear 70 21 46 8 43 43 S 7 11 29.65 1004 10 16.09344 0 0
11:15 pm 23:15 Clear 68 20 46 8 46 46 S 7 11 29.68 1005 10 16.09344 0 0
11:35 pm 23:35 Clear 66 19 48 9 52 52 S 10 17 29.68 1005 10 16.09344 0 0
11:55 pm 23:55 Clear 68 20 48 9 49 49 S 10 17 29.68 1005 10 16.09344 0 0

Powered by AerisWeather